Regional Weather Roundup
Issued by NWS

Home | Current Version | Previous Version | Graphics & Text | Print | Product List | Glossary Off
Versions: 1 2 3 4 5 6 7 8 9 10 11 12 13 14 15 16 17 18 19 20 21 22 23 24 25 26 27 28 29 30 31 32 33 34 35 36 37 38 39 40 41 42 43 44 45 46 47 48 49 50

000
ASUS43 KDMX 011807
RWRIA

WEATHER ROUNDUP FOR IOWA
NATIONAL WEATHER SERVICE DES MOINES IA
100 PM CDT TUE SEP 01 2015

NOTE: "FAIR" INDICATES FEW OR NO CLOUDS BELOW 12,000 FEET WITH NO
SIGNIFICANT WEATHER AND/OR OBSTRUCTIONS TO VISIBILITY.

* - THESE STATIONS ARE NOT NWS STATIONS...THUS NOT UNDER NWS
QUALITY CONTROL.  THEY ALSO DO NOT REPORT WEATHER SUCH
AS PRECIPITATION OR FOG.

IAZ001>003-012>014-020>022-031>034-043>046-011900-
   NORTHWEST IOWA

CITY           SKY/WX    TMP DP  RH WIND       PRES   REMARKS
CARROLL *      SUNNY     82  72  69 SW14      29.95S HX  87
CHEROKEE *     MOSUNNY   82  70  66 S9        29.92F HX  86
DENISON *      SUNNY     81  72  74 SW8G18    29.93F HX  84
LE MARS *      SUNNY     81  70  69 S10       29.91F HX  84
ORANGE CITY *  SUNNY     81  70  69 SW9       29.91F HX  84
SHELDON *      SUNNY     81  70  69 S10       29.90F HX  84
SIOUX CITY     PTSUNNY   83  68  60 MISG      29.90F HX  86
6HR MIN TEMP:  66; 6HR MAX TEMP:  83;

SPENCER        MOSUNNY   83  67  58 SW12      29.92S HX  85
6HR MIN TEMP:  62; 6HR MAX TEMP:  83;

STORM LAKE *   SUNNY     81  72  74 SW14      29.95S HX  84
$$

IAZ055>058-069>071-079>083-090>094-011900-
   SOUTHWEST IOWA

CITY           SKY/WX    TMP DP  RH WIND       PRES   REMARKS
ATLANTIC *     SUNNY     82  72  69 S10       29.97S HX  87
AUDUBON *      SUNNY     84  73  70 SW10G16   29.97F HX  91
CLARINDA *     SUNNY     86  73  66 S9        29.98F HX  93
COUNCIL BLFS * SUNNY     82  70  65 S12       29.95F HX  86
CRESTON *      SUNNY     84  72  65 S13       30.01F HX  89
LAMONI         SUNNY     87  71  58 SW16      30.01S HX  93
6HR MIN TEMP:  70; 6HR MAX TEMP:  87;

RED OAK *      SUNNY     84  72  65 S8        29.97S HX  89
SHENANDOAH *   SUNNY     86  72  62 VRB7      29.97S HX  92
$$

IAZ047>049-059>061-072>074-084-011900-
   CENTRAL IOWA

CITY           SKY/WX    TMP DP  RH WIND       PRES   REMARKS
AMES           SUNNY     86  72  62 SW12      29.96S HX  92
6HR MIN TEMP:  62; 6HR MAX TEMP:  86;

ANKENY *       SUNNY     88  73  62 SW8       29.96S HX  96
CHARITON *     SUNNY     86  72  62 SW10      29.99F HX  92
DES MOINES     MOSUNNY   87  70  56 SW10      29.96F HX  92
6HR MIN TEMP:  69; 6HR MAX TEMP:  88;

GRINNELL*      SUNNY     84  72  65 S10       29.99S HX  89
KNOXVILLE *    SUNNY     86  72  62 S9G16     29.97F HX  92
MARSHALLTOWN   SUNNY     84  72  67 SW10      29.96F HX  89
6HR MIN TEMP:  66; 6HR MAX TEMP:  84;

PELLA *        SUNNY     88  75  65 SW10      29.99S HX  97
PERRY *          N/A     86  72  62 SW8       29.96S HX  91
$$

IAZ004>006-015-016-023>025-035-036-011900-
   NORTH CENTRAL IOWA

CITY           SKY/WX    TMP DP  RH WIND       PRES   REMARKS
ALGONA *       SUNNY     81  72  74 S10       29.93F HX  84
CLARION *      HAZE      82  73  74 S8        29.94F VSB 1   HX  88
ESTHERVILLE    MOSUNNY   81  71  71 S9        29.92S HX  85
6HR MIN TEMP:  60; 6HR MAX TEMP:  81;

FORT DODGE *   MOSUNNY   84  72  65 S9        29.95S HX  89
MASON CITY     MOSUNNY   83  72  69 S12       29.95F HX  88
6HR MIN TEMP:  64; 6HR MAX TEMP:  83;

FOREST CITY *  SUNNY     79  70  73 S9        29.94S HX  81
IOWA FALLS *     N/A     84  72  65 SW9       29.97S HX  89
$$

IAZ007>011-017>019-026>030-037>042-050>054-066-011900-
   NORTHEAST IOWA

CITY           SKY/WX    TMP DP  RH WIND       PRES   REMARKS
CEDAR RAPIDS   SUNNY     84  75  74 S12       29.98F HX  92
6HR MIN TEMP:  67; 6HR MAX TEMP:  84;

CHARLES CITY * SUNNY     82  75  78 S9        29.95F HX  89
CLINTON *      SUNNY     88  73  62 SW13      30.03F HX  96
DECORAH *      SUNNY     82  73  74 VRB7      29.95F HX  88
DUBUQUE        SUNNY     83  73  72 S9        30.00F HX  89
6HR MIN TEMP:  68; 6HR MAX TEMP:  83;

MONTICELLO *   SUNNY     84  73  70 S9        29.98F HX  91
OELWEIN *      SUNNY     82  73  74 S9        29.97F HX  88
WATERLOO       SUNNY     84  72  67 SW10      29.94F HX  89
6HR MIN TEMP:  69; 6HR MAX TEMP:  84;

$$

IAZ064-065-067-068-078-011900-
   EAST CENTRAL IOWA

CITY           SKY/WX    TMP DP  RH WIND       PRES   REMARKS
DAVENPORT      SUNNY     86  72  62 S14       30.01F HX  92
6HR MIN TEMP:  72; 6HR MAX TEMP:  86;

IOWA CITY      SUNNY     86  72  62 SW10      30.00F HX  92
6HR MIN TEMP:  66; 6HR MAX TEMP:  86;

MT. PLEASANT * SUNNY     90  64  42 SW12      30.02S HX  91
MUSCATINE *    SUNNY     90  70  51 SW13      30.00S HX  95
QUAD CITIES    SUNNY     89  71  55 SW8       30.00F HX  95
6HR MIN TEMP:  71; 6HR MAX TEMP:  89;

$$

IAZ062-063-075>077-085>089-095>099-011900-
   SOUTHEAST IOWA

CITY           SKY/WX    TMP DP  RH WIND       PRES   REMARKS
BURLINGTON     SUNNY     88  71  57 S10       30.03S HX  94
6HR MIN TEMP:  71; 6HR MAX TEMP:  89;

FAIRFIELD *    SUNNY     88  70  55 SW9G17    30.01S HX  92
FORT MADISON * SUNNY     88  72  58 S10       30.03F HX  94
KEOKUK *       SUNNY     90  72  55 SW10      30.02F HX  96
OSKALOOSA *      N/A     88  70  55 SW9       30.00S HX  92
CENTERVILLE *  SUNNY     86  72  62 S13       30.03F HX  92
OTTUMWA        SUNNY     86  72  62 SW9       29.98F HX  92
6HR MIN TEMP:  69; 6HR MAX TEMP:  86;

WASHINGTON *     N/A    N/A N/A N/A MISG        N/A
$$

ABBREVIATIONS USED IN REMARKS
   TC - TEMPERATURES IN CELSIUS
  WCI - WIND CHILL INDEX
   HX - HEAT INDEX
  VSB - VISIBILITY
$$




USA.gov is the U.S. government's official web portal to all federal, state and local government web resources and services.